Location: Brno
(49.2000°N, 16.6330°E)
Time: 00:45:32
(UTC+02:00)

Transit 4A - Pass Details

Date: 01 August 2021
Orbit: 870 x 974 km, 66.8° (Epoch: 26 September)

Event Time Altitude Azimuth Distance (km) Brightness Sun altitude
Rises 02:17:39 0° 241° (WSW) 3,481 - -20.6°
Reaches altitude 10° 02:20:19 10° 249° (WSW) 2,534 - -20.5°
Exits shadow 02:21:53 18° 257° (WSW) 2,021 9.4 -20.4°
Maximum altitude 02:25:47 40° 318° (NW) 1,278 8.8 -20.1°
Drops below altitude 10° 02:31:14 10° 27° (NNE) 2,528 11.4 -19.8°
Sets 02:33:54 0° 35° (NE) 3,471 12.4 -19.6°
